#timestamp,LO_Frequency,Hit,StdDev 
1676959215.3,286047006.0,N
1676959235.1,286047003.1,N
1676959255.8,286047002.7,N
1676959275.7,286047000.8,N
1676959295.5,286047003.8,N
1676959315.4,286046999.7,N
1676959335.2,286047001.2,N
1676959355.0,286047000.8,N
1676959355.9,286047000.8,N
1676959375.8,286046999.9,N
1676959395.6,286047005.4,N
1676959415.4,286047013.9,N
1676959435.3,286047016.9,Y
1676959455.1,286047001.9,P
1676959475.9,286047004.2,N
1676959495.7,286047008.5,P
1676959515.5,286047006.1,N
1676959535.4,286047006.4,N
1676959555.2,286047007.9,Y
1676959575.0,286047002.7,P
1676959575.9,286047002.7,N
1676959595.8,286046996.4,N
1676959615.6,286046993.7,N
1676959635.5,286046996.8,N
1676959655.3,286046994.0,N
1676959675.1,286046996.0,N
1676959695.9,286046991.9,N
1676959715.7,286046992.1,N
1676959735.5,286046987.9,N
1676959755.4,286046993.5,N
1676959775.2,286047001.2,N
1676959795.1,286047005.5,N
1676959796.0,286047005.5,N
1676959815.8,286047003.0,N
1676959835.6,286047000.2,N
1676959855.5,286047004.3,N
1676959875.3,286047007.9,N
1676959895.1,286047008.1,N
1676959915.9,286047012.8,N
1676959935.7,286047009.9,N
1676959955.6,286047011.9,N
1676959975.4,286047008.1,N
1676959995.2,286046998.2,N
1676960015.1,286046998.9,N
1676960016.0,286046998.9,N
1676960035.8,286047004.1,N
1676960055.6,286047000.1,N
1676960075.5,286046998.3,N
1676960125.4,286046997.2,E
1676960135.3,286046998.7,N
1676960155.1,286047000.5,P
1676960175.8,286047000.5,N
1676960195.7,286046998.8,N
1676960215.5,286046992.6,Y
1676960235.4,286046987.5,P
1676960255.2,286046989.0,N
1676960275.0,286046985.4,N
1676960275.9,286046985.4,N
1676960295.8,286046993.2,N
1676960315.6,286046990.7,N
1676960335.5,286046994.3,N
1676960355.3,286046996.3,N
1676960375.1,286046987.4,N
1676960395.9,286046988.8,N
1676960415.7,286046993.1,N
1676960435.5,286046987.5,N
1676960455.4,286046987.8,N
1676960475.2,286046986.7,Y
1676960495.1,286046994.1,P
1676960496.0,286046994.1,P
1676960515.8,286046999.6,N
1676960535.6,286046995.1,N
1676960555.5,286046999.7,N
1676960575.3,286047005.6,N
1676960595.2,286047005.0,N
1676960615.9,286047010.3,N
1676960635.7,286047009.8,N
1676960655.6,286047002.9,N
1676960675.4,286046999.7,N
1676960695.2,286047007.7,N
1676960715.1,286047008.6,N
1676960716.0,286047008.6,N
1676960735.8,286047002.4,N
1676960755.7,286047001.0,N
1676960775.5,286047001.7,N
1676960795.3,286047001.1,N
1676960815.2,286047002.7,N
1676960835.0,286047008.8,N
1676960835.9,286047008.8,N
1676960855.7,286047011.8,N
1676960875.6,286047009.7,N
1676960895.4,286047009.3,N
1676960915.3,286047009.1,N
1676960935.1,286047000.7,N
1676960936.0,286047000.7,N
1676960955.8,286046996.9,N
1676960975.7,286047003.3,N
1676960995.5,286047003.0,N
1676961015.3,286047001.6,N
1676961035.2,286047002.6,N
1676961055.0,286047003.7,N
1676961055.9,286047003.7,N
1676961075.8,286047004.5,N
1676961095.6,286047003.6,N
1676961115.4,286047001.2,N
1676961135.3,286046995.0,N
1676961155.1,286046996.1,N
1676961175.8,286047000.0,N
1676961195.7,286047006.5,N
1676961215.5,286047006.6,N
1676961235.4,286047005.9,N
1676961255.2,286046999.9,N
1676961275.0,286047006.0,N
1676961275.9,286047006.0,N
1676961295.8,286047010.3,N
1676961315.6,286047008.2,N
1676961335.4,286047001.7,N
1676961355.3,286047000.3,N
1676961375.1,286047000.1,N
1676961395.9,286046997.4,N
1676961415.7,286046993.0,N
1676961435.5,286046996.4,N
1676961455.4,286046992.4,N
1676961475.2,286046992.2,N
1676961495.0,286046993.9,N
1676961495.9,286046993.9,N
1676961515.8,286046991.0,N
1676961535.6,286046989.1,N
1676961555.5,286046989.9,N
1676961575.3,286046990.9,N
1676961595.1,286046990.0,N
1676961615.9,286046986.9,N
1676961635.7,286046993.1,N
1676961655.6,286046999.1,N
1676961675.4,286046995.8,N
1676961695.2,286046991.8,N
1676961715.1,286046997.3,N
1676961716.0,286046997.3,N
1676961735.8,286046992.9,N
1676961755.6,286046989.2,N
1676961775.5,286046990.8,N
1676961795.3,286046995.5,N
1676961815.2,286046994.3,N
1676961835.9,286046993.6,N
1676961855.7,286046995.0,N
1676961875.6,286046997.1,N
1676961895.4,286047000.1,N
1676961915.2,286046999.0,N
1676961935.1,286046998.6,N
1676961936.0,286046998.6,N
1676961955.8,286047001.8,N
1676961975.7,286047001.5,N
1676961995.5,286046999.7,N
1676962015.3,286047003.2,N
1676962035.2,286047008.2,N
1676962055.0,286047012.2,N
1676962055.9,286047012.2,N
1676962075.8,286047013.5,N
1676962095.6,286047009.5,N
1676962115.4,286047013.5,N
1676962135.3,286047011.8,N
1676962155.1,286047010.1,N
1676962175.8,286047009.8,N
1676962195.7,286047012.7,N
1676962215.5,286047014.9,N
1676962235.4,286047009.8,N
1676962255.2,286047011.7,N
1676962275.0,286047014.0,N
1676962275.9,286047014.0,N
1676962295.8,286047010.8,N
1676962315.6,286047007.1,N
1676962335.4,286047007.9,N
1676962355.3,286047004.6,N
1676962375.1,286047001.0,N
1676962395.9,286047002.8,N
1676962415.7,286047004.1,N
1676962435.5,286046998.9,N
1676962455.4,286046999.8,N
1676962475.2,286047006.0,N
1676962495.0,286046999.7,N
1676962495.9,286046999.7,N
1676962515.8,286047002.2,N
1676962535.6,286047004.3,N
1676962555.5,286047005.6,N
1676962575.3,286047001.9,N
1676962595.1,286047005.1,N
1676962615.9,286047002.3,N
1676962635.7,286046995.7,N
1676962655.5,286047003.5,N
1676962675.4,286047003.4,N
1676962695.2,286047003.7,N
1676962715.1,286047006.9,N
1676962716.0,286047006.9,N
1676962735.8,286047006.8,N
1676962755.6,286047003.3,N
1676962775.5,286047006.3,N
1676962795.3,286047004.5,N
